Weather History for Fosston, MN

Change the Weather History Date:

Sunday, May 18, 2014

  Actual Average Record
Temperature  
Mean Temperature 56 °F -  
Max Temperature 71 °F 69 °F 93 °F (2012)
Min Temperature 42 °F 43 °F 24 °F (2002)
Degree Days  
Heating Degree Days 8    
Growing Degree Days 6 (Base 50)    
Moisture  
Dew Point 39 °F    
Average Humidity 53    
Maximum Humidity 82    
Minimum Humidity 19    
Precipitation  
Precipitation 0.00 in - - ()
Sea Level Pressure  
Sea Level Pressure 29.92 in    
Wind  
Wind Speed 7 mph (SSE)    
Max Wind Speed 20 mph    
Max Gust Speed 30 mph    
Visibility 10 miles    
Events Rain    
Averages and records for this station are not official NWS values.
T = Trace of Precipitation, MM = Missing Value Source: NWS Daily Summary

Daily Weather History Graph

Daily Weather History Graph

Search for Another Location

Airport:

Trip Planner

Search our weather history database for the weather conditions in past years. The results will help you decide how hot, cold, wet, or windy it might be!

Date:

Astronomy

May. 18, 2014 Rise Set
Actual Time 5:42 AM CDT 8:57 PM CDT
Civil Twilight 5:04 AM CDT 9:35 PM CDT
Nautical Twilight 4:16 AM CDT 10:23 PM CDT
Astronomical Twilight 3:15 AM CDT 11:26 PM CDT
Moon No Moon Rise 9:35 AM CDT (5/18)
Length of Visible Light 16h 30m
Length of Day
15h 15m
Waning Gibbous, 81% of the Moon is Illuminated
May 18
Waning Gibbous
May 21
Last Quarter
May 28
New
Jun 5
First Quarter
Jun 12
Full

Hourly Weather History & Observations

Time (CDT) Temp. Windchill Dew Point Humidity Pressure Visibility Wind Dir Wind Speed Gust Speed Precip Events Conditions
12:15 AM 46.4 °F 43.5 °F 37.4 °F 71% 29.95 in 10.0 mi South 5.8 mph - N/A   Scattered Clouds
12:35 AM 44.6 °F 41.4 °F 37.4 °F 76% 29.95 in 10.0 mi South 5.8 mph - N/A   Scattered Clouds
12:55 AM 44.6 °F 41.4 °F 37.4 °F 76% 29.94 in 10.0 mi South 5.8 mph - N/A   Scattered Clouds
1:15 AM 44.6 °F 41.4 °F 37.4 °F 76% 29.94 in 10.0 mi South 5.8 mph - N/A   Scattered Clouds
1:35 AM 46.4 °F 42.9 °F 37.4 °F 71% 29.94 in 10.0 mi South 6.9 mph - N/A   Scattered Clouds
1:55 AM 44.6 °F 41.4 °F 37.4 °F 76% 29.94 in 10.0 mi SSE 5.8 mph - N/A   Mostly Cloudy
2:15 AM 44.6 °F 42.2 °F 35.6 °F 71% 29.94 in 10.0 mi South 4.6 mph - N/A   Mostly Cloudy
2:35 AM 46.4 °F - 35.6 °F 66% 29.94 in 10.0 mi Calm Calm - N/A   Scattered Clouds
2:55 AM 46.4 °F - 35.6 °F 66% 29.94 in 10.0 mi Calm Calm - N/A   Scattered Clouds
3:15 AM 44.6 °F 42.2 °F 35.6 °F 71% 29.94 in 10.0 mi South 4.6 mph - N/A   Mostly Cloudy
3:35 AM 46.4 °F 44.3 °F 35.6 °F 66% 29.94 in 10.0 mi South 4.6 mph - N/A   Overcast
3:55 AM 46.4 °F 44.3 °F 35.6 °F 66% 29.94 in 10.0 mi SSE 4.6 mph - N/A   Overcast
4:15 AM 46.4 °F 43.5 °F 35.6 °F 66% 29.94 in 10.0 mi South 5.8 mph - N/A   Overcast
4:35 AM 46.4 °F 43.5 °F 37.4 °F 71% 29.94 in 10.0 mi South 5.8 mph - N/A   Overcast
4:55 AM 44.6 °F 40.7 °F 35.6 °F 71% 29.94 in 10.0 mi South 6.9 mph - N/A   Mostly Cloudy
5:15 AM 44.6 °F 40.7 °F 35.6 °F 71% 29.94 in 10.0 mi South 6.9 mph - N/A   Scattered Clouds
5:35 AM 42.8 °F 38.6 °F 35.6 °F 76% 29.95 in 10.0 mi South 6.9 mph - N/A   Mostly Cloudy
5:55 AM 44.6 °F 40.2 °F 35.6 °F 71% 29.95 in 10.0 mi South 8.1 mph - N/A   Scattered Clouds
6:15 AM 44.6 °F 42.2 °F 35.6 °F 71% 29.95 in 10.0 mi South 4.6 mph - N/A   Overcast
6:35 AM 44.6 °F - 35.6 °F 71% 29.96 in 10.0 mi Calm Calm - N/A   Overcast
6:56 AM 44.6 °F - 35.6 °F 71% 29.97 in 10.0 mi Calm Calm - N/A   Mostly Cloudy
7:15 AM 44.6 °F - 35.6 °F 71% 29.97 in 10.0 mi Calm Calm - N/A   Mostly Cloudy
7:35 AM 46.4 °F 43.5 °F 37.4 °F 71% 29.96 in 10.0 mi South 5.8 mph - N/A   Mostly Cloudy
7:56 AM 48.2 °F - 37.4 °F 66% 29.97 in 10.0 mi SSW 8.1 mph - N/A   Scattered Clouds
8:15 AM 50.0 °F - 37.4 °F 62% 29.96 in 10.0 mi South 10.4 mph - N/A   Scattered Clouds
8:35 AM 53.6 °F - 37.4 °F 54% 29.96 in 10.0 mi South 10.4 mph - N/A   Clear
8:56 AM 53.6 °F - 37.4 °F 54% 29.96 in 10.0 mi South 9.2 mph - N/A   Clear
9:15 AM 55.4 °F - 37.4 °F 51% 29.96 in 10.0 mi South 8.1 mph - N/A   Clear
9:35 AM 57.2 °F - 37.4 °F 48% 29.96 in 10.0 mi SSW 10.4 mph - N/A   Clear
9:56 AM 60.8 °F - 37.4 °F 42% 29.96 in 10.0 mi South 10.4 mph - N/A   Clear
10:15 AM 60.8 °F - 37.4 °F 42% 29.96 in 10.0 mi South 11.5 mph - N/A   Clear
10:35 AM 62.6 °F - 37.4 °F 39% 29.96 in 10.0 mi SSW 9.2 mph 16.1 mph N/A   Clear
10:56 AM 64.4 °F - 37.4 °F 37% 29.96 in 10.0 mi SSW 10.4 mph - N/A   Clear
11:15 AM 64.4 °F - 35.6 °F 34% 29.96 in 10.0 mi SSW 10.4 mph - N/A   Clear
11:35 AM 66.2 °F - 35.6 °F 32% 29.95 in 10.0 mi South 9.2 mph - N/A   Clear
11:56 AM 66.2 °F - 32.0 °F 28% 29.95 in 10.0 mi SSW 6.9 mph - N/A   Clear
12:15 PM 68.0 °F - 33.8 °F 28% 29.95 in 10.0 mi SW 4.6 mph - N/A   Clear
12:35 PM 69.8 °F - 33.8 °F 27% 29.94 in 10.0 mi SSW 5.8 mph - N/A   Clear
12:56 PM 69.8 °F - 32.0 °F 25% 29.93 in 10.0 mi SW 3.5 mph - N/A   Scattered Clouds
1:15 PM 69.8 °F - 37.4 °F 31% 29.93 in 10.0 mi Calm Calm - N/A   Scattered Clouds
1:35 PM 69.8 °F - 37.4 °F 31% 29.92 in 10.0 mi Calm Calm - N/A   Mostly Cloudy
1:55 PM 71.6 °F - 30.2 °F 22% 29.91 in 10.0 mi South 10.4 mph 16.1 mph N/A   Scattered Clouds
2:15 PM 71.6 °F - 26.6 °F 19% 29.90 in 10.0 mi South 12.7 mph 20.7 mph N/A   Scattered Clouds
2:35 PM 71.6 °F - 28.4 °F 20% 29.90 in 10.0 mi South 10.4 mph 16.1 mph N/A   Clear
2:55 PM 71.6 °F - 30.2 °F 22% 29.90 in 10.0 mi South 13.8 mph - N/A   Clear
3:15 PM 66.2 °F - 39.2 °F 37% 29.90 in 10.0 mi South 19.6 mph 29.9 mph N/A   Scattered Clouds
3:35 PM 69.8 °F - 37.4 °F 31% 29.90 in 10.0 mi South 19.6 mph 26.5 mph N/A   Scattered Clouds
3:55 PM 69.8 °F - 37.4 °F 31% 29.90 in 10.0 mi South 13.8 mph 29.9 mph N/A   Scattered Clouds
4:15 PM 71.6 °F - 39.2 °F 31% 29.89 in 10.0 mi South 18.4 mph 24.2 mph N/A   Scattered Clouds
4:35 PM 71.6 °F - 39.2 °F 31% 29.89 in 10.0 mi South 13.8 mph 20.7 mph N/A   Scattered Clouds
4:55 PM 69.8 °F - 39.2 °F 33% 29.89 in 10.0 mi SSE 9.2 mph 18.4 mph N/A   Scattered Clouds
5:15 PM 71.6 °F - 41.0 °F 33% 29.89 in 10.0 mi SSE 13.8 mph 19.6 mph N/A   Mostly Cloudy
5:35 PM 71.6 °F - 39.2 °F 31% 29.89 in 10.0 mi South 10.4 mph - N/A   Scattered Clouds
5:55 PM 69.8 °F - 44.6 °F 40% 29.89 in 10.0 mi SSE 9.2 mph - N/A   Mostly Cloudy
6:15 PM 68.0 °F - 44.6 °F 43% 29.88 in 10.0 mi SE 6.9 mph - N/A   Mostly Cloudy
6:35 PM 66.2 °F - 42.8 °F 43% 29.88 in 10.0 mi SE 10.4 mph 16.1 mph N/A   Mostly Cloudy
6:55 PM 66.2 °F - 44.6 °F 46% 29.88 in 10.0 mi SSE 12.7 mph 17.3 mph N/A   Scattered Clouds
7:15 PM 66.2 °F - 46.4 °F 49% 29.88 in 10.0 mi SSE 6.9 mph - N/A   Mostly Cloudy
7:35 PM 66.2 °F - 48.2 °F 52% 29.87 in 10.0 mi SE 3.5 mph - N/A   Mostly Cloudy
7:55 PM 64.4 °F - 46.4 °F 52% 29.87 in 10.0 mi SE 6.9 mph - N/A   Scattered Clouds
8:15 PM 64.4 °F - 46.4 °F 52% 29.87 in 10.0 mi SE 6.9 mph - N/A   Mostly Cloudy
8:35 PM 62.6 °F - 44.6 °F 52% 29.88 in 10.0 mi SE 10.4 mph - N/A   Scattered Clouds
8:55 PM 60.8 °F - 44.6 °F 55% 29.88 in 10.0 mi ESE 9.2 mph - N/A   Scattered Clouds
9:15 PM 60.8 °F - 46.4 °F 59% 29.89 in 10.0 mi SE 10.4 mph - N/A   Mostly Cloudy
9:35 PM 57.2 °F - 44.6 °F 63% 29.88 in 10.0 mi ESE 6.9 mph - N/A Rain Light Rain
9:55 PM 55.4 °F - 46.4 °F 72% 29.89 in 10.0 mi ESE 6.9 mph - N/A   Mostly Cloudy
10:15 PM 55.4 °F - 48.2 °F 77% 29.89 in 10.0 mi ESE 6.9 mph - N/A   Mostly Cloudy
10:35 PM 55.4 °F - 50.0 °F 82% 29.88 in 10.0 mi ESE 8.1 mph - N/A   Overcast
10:55 PM 55.4 °F - 50.0 °F 82% 29.88 in 10.0 mi ESE 10.4 mph - N/A   Mostly Cloudy
11:15 PM 55.4 °F - 48.2 °F 77% 29.88 in 10.0 mi ESE 8.1 mph - N/A   Overcast
11:35 PM 55.4 °F - 48.2 °F 77% 29.88 in 10.0 mi ESE 8.1 mph - N/A   Overcast
11:56 PM 55.4 °F - 46.4 °F 72% 29.87 in 10.0 mi SE 11.5 mph - N/A   Scattered Clouds